Dewpoint
73 73 74 74 74 74 73 73 73 73 73 73 72 72 72 72 71 71 72 71 70 70 68 69 69 68 67 67 67 67 66 66 67 66 66 65 65 66 65 65 65 65 66 64 64 63 63 62 63 63 64 64 63 64 64 63 63 63 64 64 63 64 63 62 60 61 61 63 62 62 63 63 62 62 60 62 64 64 66 64 64 63 63 63 63
73 73 74 74 74 74 73 73 73 73 73 73 72 72 72 72 72 71 71 71 70 70 69 68 69 68 67 67 67 66 67 66 66 65 67 64 64 66 65 65 65 65 65 64 64 64 64 63 63 63 64 63 63 63 63 64 63 63 63 63 61 62 62 61 61 59 58 60 61 63 63 64 62 63 61 61 62 64 64 63 64 63 63 63 64
73 73 74 74 74 74 74 73 73 73 73 72 72 72 71 72 72 71 71 71 71 70 70 68 68 68 67 67 67 66 67 66 66 65 66 65 64 65 65 64 64 64 64 63 64 64 64 64 63 64 66 64 64 64 63 62 61 61 62 64 62 62 64 62 60 59 59 59 61 61 61 62 62 62 63 63 64 64 62 62 62 63 64 63 62
73 73 73 74 74 73 73 73 73 73 72 72 72 72 71 71 72 71 71 71 70 70 70 69 68 67 67 67 66 66 66 66 66 65 65 65 65 65 65 64 64 64 64 63 63 64 62 62 63 64 64 63 63 63 63 62 62 62 62 63 62 62 62 63 62 59 60 59 61 61 62 61 62 63 64 64 63 63 62 62 63 63 63 64 63
73 73 73 73 73 73 73 73 73 73 72 72 72 72 71 71 71 71 71 70 70 70 70 69 68 68 67 67 66 66 66 66 66 65 65 65 65 65 65 64 64 65 64 63 66 63 63 62 62 63 64 63 63 62 62 62 62 62 61 62 62 63 63 63 63 62 61 60 60 61 62 62 63 63 63 63 63 62 62 62 61 61 62 63 63
72 73 73 73 73 73 73 73 73 73 72 72 71 71 71 71 71 71 71 70 70 70 70 69 68 68 67 67 66 66 66 66 66 66 65 65 65 65 65 64 64 65 65 64 64 64 63 63 63 63 63 63 63 63 63 62 62 61 60 61 63 63 63 63 62 62 61 61 60 60 61 62 61 62 62 63 62 60 60 60 60 61 62 61 62
72 72 72 72 72 72 73 73 73 73 73 72 71 71 71 71 71 71 71 70 70 70 70 69 69 68 68 67 66 66 66 66 66 66 66 65 65 65 65 65 64 65 65 64 64 64 64 63 63 63 63 63 62 61 62 62 62 61 61 61 61 62 63 63 64 63 63 62 62 62 61 61 61 60 60 62 62 61 59 58 58 60 61 62 62
72 72 72 72 72 72 72 73 73 73 73 72 72 71 70 70 71 71 71 70 69 70 70 70 69 69 68 67 66 66 66 66 66 66 66 66 65 65 65 65 64 65 65 64 64 64 64 64 63 63 63 63 62 62 62 61 62 61 62 62 63 63 62 62 61 61 61 61 61 60 61 60 59 61 62 60 58 58 60 60 58 58 58 59 60
71 72 72 72 72 72 72 72 73 73 73 73 72 71 71 70 71 71 71 70 70 70 70 70 69 69 68 67 66 66 66 67 66 66 66 66 66 65 65 65 65 65 65 65 64 63 63 64 63 63 65 67 68 67 65 65 62 60 61 63 63 61 61 62 62 62 61 61 61 61 60 60 60 59 58 57 57 57 58 58 58 59 60 60 60
71 71 72 72 72 72 72 72 73 73 73 73 73 72 71 71 71 71 71 70 70 70 71 70 69 69 68 67 66 66 66 67 65 62 63 66 66 66 65 65 65 65 65 64 64 63 63 62 63 67 68 69 70 69 67 67 66 62 60 62 63 62 62 61 60 60 60 60 60 60 59 58 58 58 57 57 58 58 58 58 58 59 59 59 59
69 70 71 72 72 72 72 72 73 73 73 73 73 72 71 71 71 72 72 71 70 70 71 70 69 68 68 67 66 66 66 66 62 61 62 63 65 65 65 65 65 65 64 64 63 63 63 62 62 65 67 68 67 69 68 67 67 65 65 65 65 62 61 60 60 60 60 60 59 59 59 58 57 57 58 58 59 58 59 59 59 59 58 56 56
68 68 71 72 72 72 72 72 72 73 73 73 73 73 72 71 71 71 72 71 71 71 70 70 69 68 68 67 66 66 66 63 60 61 62 62 64 66 64 64 65 64 64 64 63 63 62 62 62 63 64 64 65 66 68 67 66 66 66 65 65 64 63 61 61 61 60 60 59 59 58 57 57 58 58 58 58 59 59 59 58 57 57 56 55
67 67 69 72 73 73 73 73 72 72 73 73 73 73 72 72 71 71 72 72 71 71 70 70 69 68 68 67 66 66 66 62 60 60 61 61 62 63 63 63 64 64 64 64 63 63 63 63 62 63 64 69 68 66 65 66 66 64 64 64 64 63 62 61 61 62 61 60 59 58 58 57 57 58 59 60 60 59 58 58 57 57 57 55 55
66 66 68 71 72 73 73 73 73 72 72 73 73 73 72 72 71 71 72 72 71 71 70 70 69 68 68 67 67 66 66 61 59 59 60 60 61 62 61 63 64 64 64 64 64 64 63 63 63 63 65 67 65 65 64 64 65 64 64 64 64 65 64 61 60 60 62 62 60 59 59 59 59 59 61 61 60 59 58 57 56 55 55 54 54
65 65 67 70 72 73 73 73 73 73 73 73 73 73 73 72 72 72 72 72 71 71 70 69 69 68 68 68 67 66 66 60 58 58 58 59 59 62 62 64 64 65 65 65 65 64 64 64 64 66 66 65 65 66 66 67 66 65 65 65 65 65 65 65 64 62 62 62 61 60 59 60 60 60 61 62 61 60 58 55 54 54 53 54 55
65 65 66 69 71 72 73 73 73 73 73 73 73 73 73 72 72 73 72 72 71 71 70 69 68 68 68 68 67 66 65 58 57 57 57 58 59 63 62 62 64 64 65 65 65 64 64 64 66 66 65 64 66 65 67 66 64 64 64 65 65 65 65 65 63 63 64 62 61 61 60 60 61 62 62 60 57 56 58 57 55 55 54 53 53
66 65 66 69 71 72 73 73 74 74 74 74 73 73 73 73 73 72 71 71 71 70 69 69 69 68 68 68 67 67 65 58 56 55 56 56 58 63 61 61 63 65 65 65 65 65 66 65 66 67 66 65 63 61 64 68 64 64 63 63 65 65 64 65 62 60 60 59 58 59 59 58 56 53 53 54 56 54 53 53 53 53 52 51 52
67 66 66 69 72 73 74 74 75 75 75 74 74 74 74 73 73 72 71 70 70 70 69 69 69 69 68 68 67 67 62 58 54 54 54 55 58 62 62 61 62 63 64 64 64 64 67 70 68 65 64 64 60 60 61 65 65 65 64 64 64 64 64 64 62 62 59 57 56 55 55 55 55 54 54 53 53 53 53 52 52 52 52 52 51
68 67 67 70 73 74 75 75 75 75 75 75 74 74 74 73 73 72 71 70 70 70 69 69 68 68 67 66 66 64 62 58 53 54 54 54 58 62 62 61 61 62 63 63 63 64 65 67 67 66 65 61 57 58 59 62 63 63 64 63 62 62 62 60 61 59 59 59 58 60 60 59 60 58 59 57 56 57 56 54 54 53 53 53 53
70 69 70 73 75 75 76 75 75 75 75 74 74 74 73 73 73 71 70 70 70 70 70 69 68 67 66 66 65 64 62 60 57 52 52 52 55 61 61 60 59 60 61 62 62 64 65 65 62 58 57 56 56 55 54 55 59 62 63 62 61 61 59 58 60 59 57 58 58 58 58 58 58 57 57 57 58 58 58 58 56 55 54 55 55
72 72 74 75 76 76 76 76 75 75 75 74 73 73 72 72 72 71 70 69 69 69 69 68 67 66 65 65 64 63 64 63 58 51 50 51 53 57 60 60 61 62 62 62 63 63 63 63 62 57 56 55 54 52 51 52 57 62 62 61 60 58 57 57 58 60 57 58 58 57 57 57 57 57 57 56 57 55 54 53 56 56 54 51 48
74 75 76 76 76 76 76 75 75 74 73 73 72 71 71 71 71 70 69 69 68 68 67 66 66 65 65 65 64 63 65 64 59 53 52 51 52 54 61 63 64 64 64 63 63 63 63 64 63 58 54 54 52 51 51 53 55 59 56 50 50 55 58 58 57 56 56 57 56 56 55 54 53 53 53 55 55 56 52 51 51 50 50 49 48
76 76 76 76 75 76 75 74 74 74 72 72 71 70 70 70 69 69 68 68 66 65 65 65 64 65 65 64 64 65 65 64 57 56 52 50 50 52 59 63 61 66 64 64 63 64 63 63 62 58 54 52 50 50 50 51 55 55 48 49 50 53 58 56 56 56 55 55 56 54 54 54 54 54 55 53 53 53 51 51 50 50 51 51 52
76 76 75 75 75 75 75 74 73 72 72 71 70 70 69 69 69 68 67 66 65 65 64 64 64 63 64 65 64 64 65 63 57 55 55 51 50 51 55 57 59 64 65 64 64 63 61 60 59 55 51 49 48 49 50 52 55 47 47 51 53 55 56 55 55 55 56 55 54 53 54 54 55 53 53 55 54 51 51 51 50 49 49 50 50
76 75 75 75 74 75 74 74 73 72 71 71 69 69 69 68 67 67 66 66 65 64 64 64 63 63 64 64 64 65 64 62 60 58 55 52 51 51 55 56 57 58 63 64 64 62 58 55 52 49 48 46 48 49 50 51 50 49 49 51 57 55 56 54 55 55 54 54 55 55 55 55 53 51 51 53 54 51 51 51 52 52 52 52 51
75 75 74 74 74 74 73 73 72 72 71 70 69 69 68 67 66 66 66 65 64 64 64 64 64 64 64 65 65 64 62 61 60 59 57 54 53 53 55 56 58 58 56 54 52 52 50 49 49 49 49 50 53 54 55 54 52 51 51 53 55 56 55 54 55 55 55 54 54 54 53 52 51 50 53 52 50 49 50 51 50 51 49 48 47
73 73 73 73 73 73 72 72 71 70 70 69 69 68 67 66 66 65 65 64 64 64 64 64 64 64 64 65 65 64 62 61 60 58 58 57 57 57 58 58 57 57 57 55 54 53 52 53 54 53 53 53 56 56 55 55 54 52 53 54 54 55 56 55 55 55 55 54 54 54 52 51 52 54 49 49 49 50 52 52 49 46 48 47 47
73 73 73 72 72 71 71 72 70 68 68 68 67 67 66 66 65 65 64 65 64 64 64 64 64 64 65 66 65 64 63 62 61 60 59 59 59 58 60 60 59 58 57 56 55 56 55 53 53 55 54 53 53 55 55 56 55 53 52 54 54 56 57 57 58 56 55 54 53 52 52 53 48 48 50 49 48 48 50 49 47 46 48 48 44
72 72 72 71 70 69 67 64 62 61 58 54 51 53 64 65 62 59 56 56 64 65 65 65 65 65 66 66 65 64 63 62 62 57 60 56 58 59 60 60 60 59 58 54 57 57 55 55 56 56 54 54 53 54 55 56 57 56 55 55 55 55 56 56 55 55 55 54 53 52 52 49 47 49 48 47 48 46 46 46 48 47 45 44 44
71 71 70 69 67 65 63 61 60 59 58 57 56 54 50 45 52 59 57 52 48 47 58 66 66 66 66 66 65 64 64 64 56 52 51 51 52 53 54 53 54 57 54 54 57 56 55 54 55 55 55 54 54 54 55 55 56 56 56 56 56 56 55 55 55 53 53 52 51 50 48 48 46 47 47 47 45 45 45 48 44 44 44 44 44
70 69 68 67 65 64 62 61 61 60 60 59 58 57 56 52 43 43 47 48 45 42 42 49 55 60 64 63 55 50 56 52 50 49 48 49 50 50 49 49 50 49 49 56 57 56 55 55 55 55 55 55 55 55 55 55 56 56 56 56 56 55 53 51 48 50 50 50 49 48 47 46 45 46 44 44 45 45 44 45 45 45 44 44 42
67 67 66 66 65 64 63 62 62 61 60 59 58 58 57 56 55 47 42 44 43 42 42 44 50 54 55 56 55 56 50 48 48 48 47 47 48 48 47 48 47 47 48 52 58 57 56 56 56 56 56 55 56 56 55 54 55 54 53 53 53 53 50 48 49 48 48 49 47 46 45 44 44 44 45 45 45 42 40 41 42 43 44 43 44
65 65 66 66 65 64 63 62 62 61 60 60 59 58 58 57 56 55 53 45 42 41 41 42 43 46 47 48 50 50 48 47 47 46 46 46 45 45 46 46 46 45 48 55 56 56 57 57 56 55 54 53 53 52 52 50 50 49 49 50 51 51 49 49 50 50 50 47 46 45 45 43 44 43 43 42 40 38 40 42 43 43 42 42 44
65 66 66 66 65 64 64 63 63 62 61 60 60 59 58 58 56 56 56 56 56 51 46 42 41 44 43 43 45 45 45 45 45 45 44 44 43 44 45 46 42 44 51 56 56 56 57 55 53 53 54 53 51 52 52 52 52 51 51 51 51 51 51 50 45 45 45 45 44 44 43 40 41 38 38 38 40 43 43 43 41 39 40 41 40
67 69 69 68 65 65 65 64 63 63 62 62 61 60 59 58 57 57 57 57 57 56 55 52 45 40 45 44 41 42 42 42 43 42 42 43 43 43 47 53 53 53 54 56 56 55 54 54 53 54 51 51 52 52 52 52 51 51 51 49 48 47 46 46 46 46 44 43 43 42 41 40 38 39 40 40 42 41 41 40 38 40 40 39 38
67 67 67 67 65 65 65 65 64 64 63 63 62 61 59 58 58 57 57 58 57 56 53 50 48 47 43 40 40 40 40 41 41 42 42 43 44 47 54 54 54 54 54 54 54 54 53 53 53 53 53 53 53 51 51 51 51 51 49 47 48 48 48 47 47 46 46 43 42 43 40 38 39 39 39 42 42 41 38 38 40 41 41 38 40
66 66 65 66 66 65 65 65 64 64 64 63 63 62 60 59 59 58 58 57 57 56 53 51 51 51 50 48 44 40 40 40 41 41 42 43 45 53 55 55 55 54 54 53 53 53 52 52 55 53 52 50 51 52 52 52 51 51 49 48 47 46 46 46 45 48 43 43 42 40 39 37 37 36 41 40 41 39 39 42 41 39 39 41 44
65 65 65 66 66 65 65 64 64 63 63 64 63 62 61 61 60 59 59 59 56 54 53 53 54 53 52 50 51 48 45 42 43 44 44 45 48 52 54 56 55 53 53 53 53 53 52 54 53 52 52 53 52 51 51 50 49 49 50 49 50 47 51 48 48 45 45 44 43 42 42 40 41 43 43 39 38 38 39 40 37 36 38 42 41
63 61 61 62 63 64 64 63 63 63 63 63 62 62 62 61 61 60 59 57 56 55 55 55 55 54 52 51 50 49 49 50 51 51 51 51 52 53 54 55 55 54 54 54 54 54 54 54 53 52 53 52 52 50 49 50 49 49 49 48 46 45 45 42 41 42 44 44 43 42 41 43 41 43 40 38 38 38 37 37 37 39 39 38 39
62 62 61 61 62 62 62 63 63 63 63 62 62 62 62 61 60 59 58 57 56 55 55 56 56 54 52 51 50 50 52 52 52 52 52 52 53 54 54 53 53 53 55 54 54 53 54 52 52 51 51 52 52 52 51 51 48 49 48 48 44 43 42 41 39 38 39 42 43 42 41 42 42 39 37 39 38 38 38 38 40 40 38 39 40
63 63 64 61 61 62 64 63 62 62 62 62 62 61 61 60 60 59 59 58 57 57 56 57 56 54 52 50 48 49 54 54 54 54 54 54 54 54 53 52 52 53 54 54 53 52 53 52 51 51 51 51 50 51 52 51 49 47 46 45 44 44 41 40 39 38 39 38 40 41 41 40 40 37 36 38 42 41 41 42 40 36 38 41 40
60 61 61 60 60 61 61 62 63 64 62 62 61 60 61 60 59 59 59 58 58 58 58 57 56 55 51 47 46 46 54 55 55 55 54 54 53 52 52 52 53 53 54 53 55 53 52 51 51 52 52 52 52 51 49 48 47 43 41 42 41 40 40 38 40 42 43 41 42 41 39 40 40 41 41 43 40 40 40 38 37 38 40 40 40
61 62 63 61 61 61 61 62 60 60 59 60 60 62 61 60 60 60 60 59 59 58 58 57 56 55 52 48 48 47 52 53 56 54 53 53 52 53 52 52 52 53 56 55 54 52 52 53 53 51 49 48 49 48 47 46 44 40 41 40 40 38 37 40 40 41 42 42 41 42 41 41 42 40 41 42 41 41 38 38 40 40 40 39 40
61 63 62 62 62 61 61 60 59 60 60 61 60 59 60 60 60 60 59 59 59 59 58 57 55 54 53 50 49 49 50 52 53 54 53 53 53 53 53 52 53 55 55 54 54 53 52 51 50 49 50 50 49 49 48 45 41 40 39 39 40 39 37 40 41 41 41 40 41 41 41 42 42 41 42 43 40 39 40 41 41 40 40 40 40
60 60 59 59 59 60 60 60 60 60 59 59 58 59 60 58 58 58 58 58 59 58 58 57 55 54 52 51 51 50 51 51 53 54 55 53 53 53 53 53 54 55 53 53 53 53 52 52 53 52 51 50 50 48 47 44 43 41 39 36 36 36 39 40 41 41 40 41 41 41 42 42 40 39 39 39 41 41 42 40 40 42 42 41 38
59 59 59 60 59 60 59 59 59 58 58 58 58 57 57 57 56 57 57 57 58 58 57 56 54 53 52 51 51 51 51 51 52 53 54 55 54 54 54 54 54 54 54 53 53 52 52 50 50 51 50 49 49 48 47 45 42 41 41 39 37 39 40 39 39 40 40 41 41 40 40 40 37 37 42 41 41 42 41 41 41 43 42 39 38
58 58 58 59 60 60 60 59 59 57 57 57 56 56 55 54 55 55 58 57 57 58 56 56 54 53 53 53 52 52 52 52 53 53 54 54 55 54 53 54 54 53 54 55 53 52 52 51 51 50 49 50 50 46 43 41 42 42 41 38 40 40 39 38 39 39 39 40 41 36 35 36 37 37 38 40 42 42 42 41 42 42 39 38 38
59 58 58 59 58 58 58 58 59 61 56 55 55 55 54 54 53 52 51 52 55 57 56 56 55 54 54 53 54 53 53 53 54 54 54 55 55 53 54 54 54 53 53 53 52 52 51 52 50 49 48 48 47 44 42 42 41 38 37 37 37 37 39 39 36 34 34 34 34 34 34 33 34 34 37 40 41 42 42 42 42 39 39 38 38
60 57 57 56 56 55 55 56 56 54 53 53 54 53 53 53 53 52 50 51 51 49 52 55 55 55 55 55 55 54 54 54 54 53 54 55 55 55 55 54 53 53 53 52 51 53 52 50 49 49 50 48 46 44 42 40 36 34 33 32 35 37 34 35 32 27 28 35 35 35 36 36 38 40 41 40 40 41 43 42 38 39 38 39 39
58 57 56 55 55 54 55 54 53 54 54 54 53 52 52 52 50 52 50 49 50 49 48 47 50 52 53 53 53 54 53 53 53 53 53 54 54 53 53 53 53 52 51 52 52 52 49 49 49 48 47 46 44 43 42 39 35 33 31 30 33 30 30 30 31 35 36 37 36 33 33 35 36 36 37 39 40 42 42 41 41 40 40 39 40
56 57 56 56 54 53 55 54 52 53 51 49 46 46 47 50 52 51 50 47 45 46 46 42 41 42 44 45 48 50 52 52 53 53 52 54 54 54 53 53 53 52 52 52 52 51 49 49 47 46 46 46 45 44 43 38 34 32 32 32 30 29 30 31 31 33 36 35 33 34 34 36 37 37 38 38 40 41 43 44 42 40 39 40 40